Regional Weather Roundup
Issued by NWS Portland, ME

Current Version | Previous Version | Text Only | Print | Product List | Glossary Off
Versions: 1 2 3 4 5 6 7 8 9 10 11 12 13 14 15 16 17 18 19 20 21 22 23 24 25 26 27 28 29 30 31 32 33 34 35 36 37 38 39 40 41 42 43 44 45 46 47 48 49 50

000
ASUS41 KGYX 080105
RWRGYX
WEATHER ROUNDUP FOR MAINE AND NEW HAMPSHIRE
NATIONAL WEATHER SERVICE GRAY ME
800 PM EST WED DEC 07 2016

MEZ002-005-006-010-012-015-018-020-021-024-026-027-029-080200-
MAINE

CITY           SKY/WX    TMP DP  RH WIND       PRES   REMARKS
PORTLAND       CLOUDY    32  32 100 SW7       29.99R FOG
SANFORD        CLOUDY    34  33  96 S6        29.98F
BAR HARBOR     CLOUDY    31  28  89 N3        29.98R
WISCASSET      CLOUDY    33  30  88 CALM      29.99S
ROCKLAND       CLOUDY    34  33  96 CALM      29.97S
FRYEBURG       CLOUDY    26  26 100 CALM      29.95F
LEWISTONAUBURN CLOUDY    31  30  96 S5        29.97S
AUGUSTA        CLOUDY    31  29  92 CALM      29.96F
WATERVILLE     CLOUDY    29  26  89 CALM      29.93F
BANGOR         CLOUDY    30  27  88 CALM      29.96F
GREENVILLE       N/A     26  26 100 CALM      29.85F
MILLINOCKET    CLOUDY    27  24  89 E5        29.93S
HOULTON        CLOUDY    26  24  92 SW7       29.89F
PRESQUE ISLE   FLURRIES  22  20  92 SE6       29.89S
FRENCHVILLE    CLOUDY    22  19  89 S9        29.81F
CARIBOU        FLURRIES  22  20  92 S7        29.86F
$$

NHZ002-005-008-009-011-012-014-080200-
NEW HAMPSHIRE

CITY           SKY/WX    TMP DP  RH WIND       PRES   REMARKS
PORTSMOUTH     CLOUDY    34  33  94 NW3       29.98S FOG
ROCHESTER      CLOUDY    35  32  88 CALM      29.97F
NASHUA         FOG       31  31 100 CALM      29.99F VSB 1/4
MANCHESTER     FOG       34  33  96 CALM      29.98S VSB 1/4
CONCORD        FOG       35  33  92 CALM      29.98F VSB 3/4
LACONIA        CLOUDY    32  30  92 SW6       29.97S
PLYMOUTH         N/A     30  30  99 CALM      29.96F FOG
BERLIN         CLOUDY    29  26  89 CALM      29.90F
WHITEFIELD     CLOUDY    28  25  88 CALM      29.92F
JAFFREY        PTCLDY    29  27  92 S3        29.96F FOG
KEENE          FOG       29  28  96 CALM      30.00R VSB 3/4
LEBANON        FOG       32  32 100 CALM      29.96S VSB 1
MT WASHINGTON  FOG       14  14 100 W37         N/A  VSB 0   WCI  -9
$$

VTZ005-007-008-080200-
VERMONT

CITY           SKY/WX    TMP DP  RH WIND       PRES   REMARKS
ST JOHNSBURY     N/A     32  32 100 MISG      29.92F
MONTPELIER     CLOUDY    34  30  85 W5        29.94F
BURLINGTON     MOCLDY    35  32  88 S7        29.94S
$$

MAZ007-012-024-CTZ003-RIZ002-NYZ038-NYZ072-080200-
SOUTHERN NEW ENGLAND AND NY

CITY           SKY/WX    TMP DP  RH WIND       PRES   REMARKS
BOSTON         PTCLDY    39  36  89 SW9       30.00F
WORCESTER      FOG       34  32  92 W13       29.97R VSB 1/2
NANTUCKET      CLOUDY    43  39  86 NW5       30.00F
PROVIDENCE     CLOUDY    43  36  76 NW3       30.01F
HARTFORD       MOCLDY    36  34  92 W5        30.02R
ALBANY         CLOUDY    35  33  92 CALM      30.01F
NEW YORK CITY  CLOUDY    47  34  60 NW7       30.03F
$$

ANZ081-ANZ082-ANZ150-NHZ014-MEZ023>029-080200-
COASTAL MARINE OBSERVATIONS

STATION/POSITION TIME  TEMP    WIND        PRES    WAVE
                       AIR SEA DIR/SP/G            HT/PER
                 (UTC) (F)     (DEG/KT/KT) (MB)    (FT/S)
MOUNT DESERT ROC 0000   41                 1014.7F
MATINICUS ROCK   0000   42     220/ 10/ 11 1014.2F
ISLE OF SHOALS   0000   39     240/ 12/ 14 1015.4R
JEFFREYS LEDGE   0008      51                N/A     3/10
CASHES LEDGE BUO 2350   43 50  200/  8/ 10 1015.0    2/ 9
GEORGES BANK BUO 2350   48 51              1012.2    5/ 5
$$

.............KEY..............
   WCI - WIND CHILL
   TC  - TEMPERATURE IN CELSIUS
   VSB - VISIBILITY IN MILES
   HX  - HEAT INDEX
   FAIR- INDICATES FEW OR NO CLOUDS BELOW 12,000 FT, WITH NO
         SIGNIFICANT WEATHER AND/OR OBSTRUCTIONS TO VISIBILITY.





USA.gov is the U.S. government's official web portal to all federal, state and local government web resources and services.